Location: Caltech
(34.1382°N, 118.1253°W)
Time: 11:07:29
(UTC-07:00)

Iridium 68 - Visible Passes

Search period start: 22 April 2018 00:00
Search period end: 02 May 2018 00:00
Orbit: 776 x 779 km, 86.4° (Epoch: 21 April)

Date Brightness Start Highest point End Pass type
(mag) Time Alt. Az. Time Alt. Az. Time Alt. Az.
22 Apr 6.2 04:45:59 10° N 04:51:13 74° E 04:56:24 10° S visible
23 Apr 7.4 04:12:47 10° NNE 04:17:37 37° E 04:22:25 10° SSE visible
24 Apr 8.4 03:40:09 10° NNE 03:43:54 20° E 03:47:39 10° SE visible
24 Apr 6.6 05:19:55 10° NNW 05:24:42 38° W 05:29:28 10° SSW visible
25 Apr 5.9 04:46:06 10° N 04:51:18 75° W 04:56:29 10° S visible
26 Apr 6.6 04:12:39 10° N 04:17:47 56° E 04:22:53 10° SSE visible
27 Apr 7.8 03:39:38 10° NNE 03:44:09 29° E 03:48:38 10° SE visible
27 Apr 7.1 05:20:28 10° NNW 05:24:41 25° W 05:28:55 10° SW visible
28 Apr 8.7 03:07:24 10° NE 03:10:23 15° ENE 03:13:21 10° ESE visible
28 Apr 6.2 04:46:20 10° NNW 04:51:21 49° W 04:56:03 12° SSW visible
29 Apr 6.0 04:12:40 10° N 04:17:55 85° E 04:21:55 17° S visible
30 Apr 7.0 03:39:22 10° NNE 03:44:20 43° E 03:47:52 18° SSE visible
30 Apr 7.5 05:21:19 10° NW 05:24:37 17° W 05:27:56 10° WSW visible
01 May 8.1 03:06:36 10° NNE 03:10:40 23° E 03:13:52 13° SE visible
01 May 6.8 04:46:45 10° NNW 04:51:22 33° W 04:54:18 19° SW visible
